Location: Crni Vrh Observatory
(45.9460°N, 14.0712°E)
Time: 22:40:49
(UTC+01:00)

BlueWalker 3 - Visible Passes

Search period start: 03 December 2023 00:00
Search period end: 13 December 2023 00:00
Orbit: 489 x 503 km, 53.2° (Epoch: 03 December)

Date Brightness Start Highest point End Pass type
(mag) Time Alt. Az. Time Alt. Az. Time Alt. Az.
03 Dec 3.7 04:41:02 32° E 04:41:02 32° E 04:43:17 10° ESE visible
03 Dec 3.1 06:15:36 18° W 06:17:43 29° SW 06:21:02 10° SSE visible
04 Dec 4.7 04:19:34 18° E 04:19:34 18° E 04:20:37 10° ESE visible
04 Dec 3.0 05:54:08 26° WSW 05:55:04 29° SW 05:58:24 10° SSE visible
05 Dec 3.0 05:32:43 29° SW 05:32:43 29° SW 05:35:45 10° SSE visible
06 Dec 3.8 05:11:20 21° S 05:11:20 21° S 05:13:05 10° SSE visible
07 Dec 4.6 04:50:02 12° SSE 04:50:02 12° SSE 04:50:24 10° SSE visible
